Simultaneous Nadir Overpasses (SNOs) Predictions

Prediction of SNOs between METOP-A and TERRA Satellite Orbit:

Table of predicted SNOs for the next 14.0 days since TLE Epoch: 2/21/2015
Index Date (METOP-A) Time (METOP-A) Lat,Lon (METOP-A) SZA (METOP-A ) Date (TERRA) Time (TERRA) Lat,Lon (TERRA) SZA (TERRA ) Distance(km) Time Diff (sec)
1 02/21/2015 10:59:32 81.31, 62.10 94.21 02/21/2015 11:00:35 81.31, 62.01 94.22 1.67 63
2 02/21/2015 11:50:11 -81.32,-130.00 85.74 02/21/2015 11:50:01 -81.32,-130.04 85.75 0.81 10
3 02/24/2015 06:33:54 81.31, 128.60 93.21 02/24/2015 06:34:46 81.31, 128.62 93.23 0.26 52
4 02/24/2015 07:24:33 -81.32, -63.46 86.74 02/24/2015 07:24:12 -81.33, -63.42 86.74 1.09 21
5 02/27/2015 02:08:16 81.32,-164.55 92.23 02/27/2015 02:08:57 81.32,-164.74 92.23 3.20 41
6 02/27/2015 02:58:56 -81.32, 3.03 87.76 02/27/2015 02:58:24 -81.32, 2.85 87.79 3.00 32
7 03/01/2015 21:42:40 81.32, -98.54 91.14 03/01/2015 21:43:08 81.32, -98.44 91.16 1.69 28
8 03/01/2015 22:33:20 -81.32, 69.08 88.84 03/01/2015 22:32:35 -81.31, 69.17 88.86 1.54 45
9 03/04/2015 17:17:02 81.31, -32.19 90.08 03/04/2015 17:17:17 81.31, -32.10 90.09 1.56 15




NCC Satellite Simultaneous Nadir Overpasses (SNOs) Prediction Service
